Other Public Products
Issued by NWS Grand Forks, ND

Home | Current Version | Previous Version | Text Only | Print | Product List | Glossary Off
Versions: 1 2 3 4 5 6 7 8 9 10 11 12 13 14 15 16 17 18 19 20 21 22 23 24 25 26 27 28 29 30 31 32 33 34 35 36 37 38 39 40 41 42 43 44 45 46 47 48 49 50

000
FPUS83 KFGF 250310
OPUFGF
PRAIRIE TO PINES WEATHER ROUNDUP
NATIONAL WEATHER SERVICE EASTERN NORTH DAKOTA/GRAND FORKS ND
1000 PM CDT SUN SEP 24 2017

 **SATELLITE DATA USED TO AUGMENT SKY COVER AT AUTOMATED STATIONS**
 *****  WEATHER ACROSS EASTERN NORTH DAKOTA  *****

CITY           SKY/WX    TMP DP  RH WIND       PRES   REMARKS
GRAND FORKS    LGT RAIN  51  51 100 NW9       29.99R
GRAND FORKS AF CLOUDY    50  50 100 NW8       30.02R
GRAND CITY NWS NOT AVBL
BUXTON         NOT AVBL
DEVILS LAKE    CLOUDY    48  45  89 NW9       30.05S
FARGO          CLOUDY    52  50  93 NW12      30.01R
WAHPETON ARPT  MOCLDY    52  48  87 NW9       30.01R
$$

 *****  WEATHER ACROSS CENTRAL AND WESTERN NORTH DAKOTA  *****

CITY           SKY/WX    TMP DP  RH WIND       PRES   REMARKS
JAMESTOWN      CLOUDY    48  46  93 N9        30.04R
BISMARCK       FAIR      47  45  93 NW3       30.10R
MINOT          CLOUDY    49  46  90 W8        30.09S
MINOT AFB      CLOUDY    48  45  91 NW7       30.08R
GARRISON         N/A     44  43  96 NW6       30.10R
WILLISTON      CLOUDY    46  44  93 SW3       30.13R
DICKINSON      CLOUDY    44  42  93 NW5       30.11R
HETTINGER      CLOUDY    44  41  89 N6        30.14R
$$

 *****  OTHER OBSERVATIONS NORTHEAST NORTH DAKOTA  *****

CITY           SKY/WX    TMP DP  RH WIND       PRES   REMARKS
WALHALLA       FAIR     N/A N/A N/A NW10G17   30.01R
LANGDON        NOT AVBL
CAVALIER       CLOUDY    50  50 100 NW14G21   29.99R
GRAFTON        NOT AVBL
CANDO          CLOUDY    46  46 100 NW7       30.07S
FORT TOTTEN      N/A     49  47  91 N6        29.95S
ROLLA          CLOUDY    46  46 100 NW10      30.06R
RUGBY          NOT AVBL
 ***** THE ABOVE OBSERVATIONS ARE NON NWS ARE NOT QUALITY
        CONTROLLED AND MAY MIS-REPORT RAIN FOR SNOW...
$$

 *****  OTHER OBSERVATIONS SOUTHEAST NORTH DAKOTA *****

CITY           SKY/WX    TMP DP  RH WIND       PRES   REMARKS
COOPERSTOWN    CLOUDY    50  48  93 NW15      30.03S
VALLEY CITY    NOT AVBL
OAKES          NOT AVBL
GWINNER        CLOUDY    52  48  87 NW8       30.03R
SHEYENNE NWR     N/A     52  50  94 NW6       29.95S
BUFFALO        NOT AVBL
WYNDMERE       NOT AVBL
 ***** THE ABOVE OBSERVATIONS ARE NON NWS ARE NOT QUALITY
       CONTROLLED AND MAY MIS-REPORT RAIN FOR SNOW...
$$

  *****  WEATHER ACROSS NORTHERN MINNESOTA  *****

CITY           SKY/WX    TMP DP  RH WIND       PRES   REMARKS
FLAG ISLAND    CLOUDY    52  52 100 W13       29.88R FOG
WARROAD        NOT AVBL
ROSEAU         CLOUDY    50  45  81 NW9       29.92S HAZE
HALLOCK        CLOUDY    50  48  93 NW15      29.97R
THF RVR FALLS  CLOUDY    50  49  96 NW13      29.97R
HALSTAD        NOT AVBL
FOSSTON        CLOUDY    48  48 100 NW8       29.97R
BAUDETTE       CLOUDY    53  52  96 NW12      29.88R
WASKISH        MOCLDY    55  54  94 W10       29.90R
CROOKSTON      CLOUDY    50  48  93 NW12      29.99R
$$
  *****  WEATHER ACROSS CENTRAL AND WEST MINNESOTA  *****

CITY           SKY/WX    TMP DP  RH WIND       PRES   REMARKS
BEMIDJI        CLOUDY    53  52  97 W9        29.93R
PARK RAPIDS    CLOUDY    54  51  90 W12       29.95R
WADENA         CLOUDY    54  54 100 NW7       29.96R FOG
DETROIT LAKES  LGT RAIN  50  50 100 NW10      29.99R
MOORHEAD       CLOUDY    52  50  93 NW10      30.01R FOG
FERGUS FALLS   CLOUDY    52  52 100 NW10      30.00R
ELBOW LAKE     CLOUDY    52  52  99 W13       29.99S
MORRIS MN      MOCLDY    54  54 100 NW13      29.98R
STAPLES        CLOUDY    55  54  94 W12       29.95R
WHEATON        CLOUDY    54  52  94 NW8       30.02R FOG
$$
  *****  WEATHER ELSEWHERE ACROSS MINNESOTA  *****

CITY           SKY/WX    TMP DP  RH WIND       PRES   REMARKS
DULUTH         LGT RAIN  67  65  93 SW13      29.88F
INTRNTL FALLS  CLOUDY    60  57  89 NW12      29.84R
ELY            FAIR      66  66 100 S5        29.86R
CLOQUET        FAIR      66  63  88 SW3       29.89S
BRAINERD       CLOUDY    63  60  90 W12       29.92R
HIBBING        MOCLDY    64  64 100 S3        29.86S
ALEXANDRIA     CLOUDY    54  53  97 NW13      29.98R
SAINT CLOUD    MOCLDY    66  65  96 W9        29.92R
MINNEAPOLIS    MOCLDY    74  66  76 W7        29.91R
$$

  *****  WEATHER ACROSS SOUTH DAKOTA  *****

CITY           SKY/WX    TMP DP  RH WIND       PRES   REMARKS
SIOUX FALLS    CLOUDY    57  55  93 NW10      29.99R
BROOKINGS      CLOUDY    54  52  93 NW13      30.01R
WATERTOWN      CLOUDY    52  50  93 N15       30.00R
HURON          CLOUDY    54  50  86 N12       30.03R
SISSETON         N/A     53  51  93 NW13      30.00R
ABERDEEN       CLOUDY    52  49  89 N9        30.04R
MITCHELL       CLOUDY    55  51  86 N8        30.02R
PIERRE         MOCLDY    50  46  86 N16       30.05F
MOBRIDGE       CLOUDY    52  46  80 N10       30.06S
RAPID CITY     CLOUDY    46  43  87 N9        30.11R
$$

  *****  SOME WEATHER IN NEARBY STATES *****

CITY           SKY/WX    TMP DP  RH WIND       PRES   REMARKS
GLASGOW MT     CLOUDY    47  38  71 S5        30.10S
GREAT FALLS MT FAIR      46  29  51 SE6       30.04S
CHEYENNE WY    LGT RAIN  42  41  96 NE9       30.05R VSB 1
SCOTTSBLUFF NE CLOUDY    48  44  86 NE15      30.06R
OMAHA NE       CLOUDY    68  63  84 N14       29.93R
DES MOINES IA  FAIR      77  63  61 SE6       29.92R
DAVENPORT IA   FAIR      69  64  84 SE5       29.99S
CHICAGO IL     FAIR      79  60  52 E6        30.01S
EAU CLAIRE WI  FAIR      77  61  57 S9        29.90S
LA CROSSE WI   FAIR      81  64  56 S6        29.93R
$$

  *****  SOME NATIONAL WEATHER *****

CITY           SKY/WX    TMP DP  RH WIND       PRES   REMARKS
LA GUARDIA NY  FAIR      77  63  61 S3        30.04F
RALEIGH NC     MOCLDY    70  60  70 NE6       30.02F
ATLANTA GA     FAIR      74  65  73 E8        30.03R
NEW ORLEANS LA FAIR      79  70  74 E12       29.91F
OKLAHOMA CITY  MOCLDY    74  62  66 SE8       29.90R
ALBUQUERQUE NM MOCLDY    70  25  18 N5        29.91R
SALT LAKE CITY CLOUDY    45  43  93 S6        30.10S
LOS ANGELES CA FAIR      70  54  56 W12       29.85R
BOISE ID       FAIR      57  35  43 NW12      30.02R
SEATTLE WA     MOCLDY    63  49  60 CALM      30.10S
$$

*** WEATHER ACROSS MANITOBA...SASKATCHEWAN AND ONTARIO ***
                ***ONTARIO***

CITY           SKY/WX    TMP DP  RH WIND       PRES   REMARKS
GERALDTON      PTCLDY    66  63  88 S6        29.83F
THUNDER BAY    MOCLDY    63  63 100 VRB2      29.84R
SIOUX LOOKOUT  LGT RAIN  63  63 100 W8        29.76R FOG
TORONTO        CLEAR     79  66  65 VRB2      30.10R
BIG TROUT LK   LGT RAIN  45  45 100 NE10      29.93F
PICKLE LAKE    NOT AVBL
DRYDEN         CLOUDY    57  57 100 W14       29.80R FOG
KENORA         NOT AVBL
$$
                *** MANITOBA***

CITY           SKY/WX    TMP DP  RH WIND       PRES   REMARKS
BRANDON        MOCLDY    45  43  93 NW7       30.06S
DAUPHIN        CLOUDY    48  46  93 N5        30.09R
ISLAND LAKE    NOT AVBL
PILOT MOUND      N/A     46  45  93 NW9         N/A
THE PAS        CLOUDY    41  39  93 VRB2      30.12S
THOMPSON       CLOUDY    39  34  81 NE5       30.15S
WINNIPEG       LGT RAIN  48  46  93 N13       29.98R
LYNN LAKE      CLOUDY    37  36  93 SE6       30.12S
CHURCHILL      CLOUDY    39  34  81 S3        30.18F
GILLAM         CLOUDY    39  34  81 N12       30.15F
$$
                ***SASKATCHEWAN***

CITY           SKY/WX    TMP DP  RH WIND       PRES   REMARKS
ESTEVAN        CLOUDY    46  45  93 S2        30.11S
KINDERSLEY     PTCLDY    45  32  61 SE10      30.03S
LLOYDMINSTER   MOCLDY    50  37  62 S9        29.98S
PRINCE ALBERT  MOCLDY    45  41  87 E5        30.08F
REGINA         CLOUDY    50  36  57 SE5       30.10S
YORKTON        CLOUDY    48  39  71 CALM      30.10S


USA.gov is the U.S. government's official web portal to all federal, state and local government web resources and services.